| time (UTC) | temp F | wind direction | speed knots | gust knots | rain 1hr in | rain 24hr in | rain mn in | humidity % | barometer mb |
| 20260503181556 | 73 | 315 | 1.7 | 7.8 | 0.00 | 0.00 | 0.00 | 48 | 1014.4 |
| 20260503180042 | 72 | 342 | 0.9 | 4.3 | 0.00 | 0.00 | 0.00 | 55 | 1014.6 |
| 20260503174537 | 71 | 229 | 0.0 | 2.6 | 0.00 | 0.00 | 0.00 | 58 | 1014.8 |
| 20260503173050 | 69 | 351 | 0.9 | 5.2 | 0.00 | 0.00 | 0.00 | 60 | 1014.9 |
| 20260503171536 | 68 | 39 | 0.9 | 3.5 | 0.00 | 0.00 | 0.00 | 63 | 1015.0 |
| 20260503081559 | 50 | 0.0 | 0.0 | 0.00 | 0.01 | 0.00 | 86 | 1015.2 | |
| 20260503071551 | 51 | 0.0 | 0.0 | 0.00 | 0.01 | 0.00 | 83 | 1015.1 | |
| 20260503054518 | 54 | 0.0 | 0.0 | 0.00 | 0.01 | 0.01 | 79 | 1014.8 | |
| 20260503053017 | 54 | 0.0 | 0.0 | 0.00 | 0.01 | 0.01 | 79 | 1014.8 | |
| 20260503051510 | 55 | 0.0 | 0.0 | 0.00 | 0.01 | 0.01 | 78 | 1014.9 | |
| 20260503050007 | 55 | 0.0 | 0.0 | 0.00 | 0.01 | 0.01 | 77 | 1014.8 | |
| 20260503044501 | 56 | 0.0 | 0.0 | 0.00 | 0.01 | 0.01 | 77 | 1014.8 | |
| 20260503043107 | 57 | 0.0 | 0.0 | 0.00 | 0.01 | 0.01 | 75 | 1014.8 | |
| 20260503041553 | 58 | 0.0 | 0.0 | 0.00 | 0.01 | 0.01 | 74 | 1014.6 | |
| 20260503040048 | 59 | 0.0 | 0.0 | 0.00 | 0.01 | 0.01 | 72 | 1014.5 | |
| 20260503034543 | 60 | 0.0 | 0.0 | 0.00 | 0.01 | 0.01 | 71 | 1014.3 | |
| 20260503033053 | 61 | 0.0 | 0.0 | 0.00 | 0.01 | 0.01 | 69 | 1014.1 | |
| 20260503031537 | 62 | 0.0 | 0.0 | 0.00 | 0.01 | 0.01 | 68 | 1014.1 | |
| 20260503030031 | 63 | 0.0 | 0.0 | 0.00 | 0.01 | 0.01 | 66 | 1013.9 | |
| 20260503024529 | 64 | 275 | 0.0 | 0.0 | 0.00 | 0.01 | 0.01 | 66 | 1014.0 |
| 20260503023042 | 65 | 297 | 0.0 | 0.0 | 0.00 | 0.01 | 0.01 | 64 | 1014.0 |
| 20260503021528 | 66 | 297 | 0.0 | 0.0 | 0.00 | 0.01 | 0.01 | 62 | 1014.0 |
| 20260503020027 | 67 | 298 | 0.0 | 0.0 | 0.00 | 0.01 | 0.01 | 59 | 1014.1 |
| 20260503014524 | 68 | 298 | 0.0 | 0.0 | 0.00 | 0.01 | 0.01 | 57 | 1014.2 |
| 20260503013023 | 69 | 296 | 0.0 | 0.0 | 0.00 | 0.01 | 0.01 | 53 | 1014.3 |
| 20260503011521 | 70 | 311 | 0.0 | 3.5 | 0.00 | 0.01 | 0.01 | 52 | 1014.5 |
| 20260503010029 | 71 | 273 | 0.0 | 6.1 | 0.00 | 0.01 | 0.01 | 51 | 1014.5 |
| 20260503004518 | 73 | 321 | 0.0 | 4.3 | 0.00 | 0.01 | 0.01 | 48 | 1014.6 |
| 20260503003016 | 74 | 219 | 0.0 | 6.1 | 0.00 | 0.01 | 0.01 | 51 | 1014.6 |
| 20260503001518 | 75 | 295 | 0.9 | 7.8 | 0.00 | 0.01 | 0.01 | 48 | 1014.7 |
| 20260503000020 | 75 | 347 | 0.9 | 7.0 | 0.00 | 0.01 | 0.01 | 48 | 1014.8 |
| 20260502234510 | 75 | 240 | 0.9 | 8.7 | 0.00 | 0.01 | 0.01 | 49 | 1014.9 |
| 20260502233010 | 75 | 302 | 0.0 | 9.6 | 0.00 | 0.01 | 0.01 | 51 | 1015.1 |
| 20260502231508 | 75 | 322 | 0.0 | 8.7 | 0.00 | 0.01 | 0.01 | 50 | 1015.1 |
| 20260502230003 | 74 | 276 | 0.9 | 8.7 | 0.00 | 0.01 | 0.01 | 53 | 1015.3 |
| 20260502224500 | 74 | 215 | 1.7 | 7.8 | 0.00 | 0.01 | 0.01 | 54 | 1015.4 |
| 20260502223059 | 74 | 198 | 0.0 | 9.6 | 0.00 | 0.01 | 0.01 | 53 | 1015.6 |
| 20260502221556 | 74 | 256 | 0.9 | 10.4 | 0.00 | 0.01 | 0.01 | 55 | 1015.7 |
| 20260502220054 | 74 | 194 | 0.0 | 5.2 | 0.00 | 0.01 | 0.01 | 55 | 1015.9 |
| 20260502214551 | 72 | 215 | 1.7 | 6.1 | 0.00 | 0.01 | 0.01 | 61 | 1016.1 |
| 20260502213046 | 71 | 15 | 0.9 | 7.8 | 0.00 | 0.01 | 0.01 | 58 | 1016.3 |
| 20260502211553 | 71 | 257 | 0.0 | 10.4 | 0.00 | 0.01 | 0.01 | 58 | 1016.5 |
| 20260502210046 | 71 | 279 | 0.9 | 11.3 | 0.00 | 0.01 | 0.01 | 64 | 1016.7 |
| 20260502204545 | 70 | 217 | 0.0 | 7.8 | 0.00 | 0.01 | 0.01 | 64 | 1016.8 |
| 20260502203045 | 69 | 305 | 3.5 | 10.4 | 0.00 | 0.01 | 0.01 | 63 | 1016.7 |
| 20260502201544 | 69 | 300 | 1.7 | 7.8 | 0.00 | 0.01 | 0.01 | 61 | 1017.0 |
| 20260502200046 | 70 | 275 | 3.5 | 9.6 | 0.00 | 0.01 | 0.01 | 62 | 1017.1 |
| 20260502194544 | 71 | 252 | 2.6 | 9.6 | 0.00 | 0.01 | 0.01 | 62 | 1017.1 |
| 20260502193042 | 72 | 305 | 1.7 | 8.7 | 0.00 | 0.01 | 0.01 | 61 | 1017.0 |
| 20260502191538 | 71 | 286 | 0.9 | 5.2 | 0.00 | 0.01 | 0.01 | 58 | 1017.1 |
| 20260502190134 | 71 | 311 | 2.6 | 8.7 | 0.00 | 0.01 | 0.01 | 56 | 1017.3 |
| 20260502184535 | 70 | 338 | 0.0 | 7.0 | 0.00 | 0.01 | 0.01 | 61 | 1017.3 |
| 20260502183027 | 69 | 351 | 0.0 | 5.2 | 0.00 | 0.01 | 0.01 | 67 | 1017.5 |